Flag for Botswana Weather past 2 weeks in Gaborone, Botswana

Now
70 °F

Sunny.


Feels Like: 70 °F
Forecast: 68 / 90 °F
Wind: 6 mph from East

Location: Seretse Khama International Airport

Current Time: Jan 31, 2015 at 7:01:52 AM

Latest Report: Jan 31, 2015 at 6:00 AM


Visibility: 10 mi

Pressure: 30.04 "Hg

Humidity: 83%

Dew point: 64 °F

Location of GaboroneLocation

Historic Weather in Gaborone — Graph

°F

Gaborone temperature yesterday

Maximum temperature yesterday: 84 °F (at 4:00 PM)
Minimum temperature yesterday: 68 °F (at 4:00 AM)
Average temperature yesterday: 74 °F

Past Weeks' High & Low Weather Summary

 TemperatureHumidityPressure
High99 °F (Jan 27, 4:00 PM)94% (Jan 16, 6:00 AM)31.42 "Hg (Jan 16, 6:00 AM)
Low61 °F (Jan 19, 6:00 AM)16% (Jan 21, 5:00 PM)29.80 "Hg (Jan 16, 4:00 PM)
Average79 °F51%30.03 "Hg
* Reported Jan 16 6:00 AM — Jan 31 6:00 AM, Gaborone, Weather by CustomWeather, © 2014

Note: Actual official high and low records may vary slightly from our data, if they occured in-between our weather recording intervals... More about our weather records

Advertising

Gaborone weather history for previous 24 hours

 ConditionsComfort  
Time TempWeatherWind HumidityBarometerVisibility
6:00 AM
Jan 31
70 °FSunny.6 mph83%30.04 "Hg10 mi
5:00 AM70 °FPassing clouds.5 mph83%30.04 "HgN/A
2:00 AM70 °FClear.2 mph83%30.01 "Hg10 mi
1:00 AM72 °FClear.7 mph73%30.01 "Hg10 mi
11:00 PM
Jan 30
73 °FClear.7 mph69%30.04 "Hg10 mi
10:00 PM75 °FClear.5 mph69%30.04 "Hg10 mi
9:00 PM77 °FClear.5 mph61%30.01 "Hg10 mi
8:00 PM79 °FPassing clouds.6 mph54%29.98 "HgN/A
7:00 PM82 °FPassing clouds.6 mph45%29.98 "HgN/A
6:00 PM84 °FPassing clouds.8 mph40%29.95 "HgN/A
4:00 PM84 °FScattered clouds.7 mph43%29.98 "HgN/A
2:00 PM81 °FScattered clouds.7 mph48%30.07 "HgN/A
1:00 PM79 °FScattered clouds.7 mph58%30.07 "HgN/A
12:00 PM77 °FBroken clouds.8 mph61%30.09 "HgN/A
11:00 AM73 °FBroken clouds.8 mph74%30.12 "HgN/A
10:00 AM72 °FBroken clouds.10 mph78%30.12 "HgN/A
9:00 AM72 °FOvercast.10 mph78%30.12 "HgN/A
8:00 AM70 °FOvercast.9 mph88%30.09 "HgN/A
7:00 AM70 °FPartly sunny.9 mph88%30.09 "HgN/A
Weather by CustomWeather, © 2014

See weather overviewHow to use our weather pages